IK7IZV Weather Reports


Display with metric or nautical units.
time (UTC)temp
F
wind
direction
speed
MPH
gust
MPH
rain 1hr
in
rain 24hr
in
rain mn
in
humidity
%
barometer
mb
20260831063040 82 331 5.0 10.0 0.00 0.00 0.00 81 1014.5
20260831061540 82 352 5.0 13.0 0.00 0.00 0.00 81 1014.5
20260831060048 81 335 7.0 10.0 0.00 0.00 0.00 81 1014.6
20260831054538 81 350 3.0 8.0 0.00 0.00 0.00 82 1014.5
20260831053037 80 337 5.0 8.0 0.00 0.00 0.00 82 1014.4
20260831051549 80 352 6.0 11.0 0.00 0.00 0.00 83 1014.4
20260831050037 80 347 5.0 9.0 0.00 0.00 0.00 83 1014.3
20260831044537 80 347 4.0 11.0 0.00 0.00 0.00 83 1014.3
20260831043031 80 338 4.0 9.0 0.00 0.00 0.00 83 1014.1
20260831041534 80 351 5.0 11.0 0.00 0.00 0.00 83 1014.1
20260831040041 80 359 5.0 11.0 0.00 0.00 0.00 84 1014.1
20260831034528 80 350 6.0 11.0 0.00 0.00 0.00 84 1014.1
20260831033026 80 351 7.0 12.0 0.00 0.00 0.00 84 1014.0
20260831031526 80 345 7.0 12.0 0.00 0.00 0.00 84 1014.1
20260831030023 81 346 5.0 14.0 0.00 0.00 0.00 84 1014.1
20260831024522 81 354 5.0 11.0 0.00 0.00 0.00 84 1014.1
20260831023033 81 345 4.0 13.0 0.00 0.00 0.00 84 1014.0
20260831021540 81 19 3.0 12.0 0.00 0.00 0.00 84 1014.0
20260831020019 81 343 6.0 11.0 0.00 0.00 0.00 85 1014.1
20260831014518 81 349 5.0 13.0 0.00 0.00 0.00 85 1014.0
20260831013014 82 28 7.0 23.0 0.00 0.00 0.00 87 1013.9
20260831011512 83 32 11.0 22.0 0.00 0.00 0.00 88 1013.9
20260831010031 83 358 12.0 23.0 0.00 0.00 0.00 87 1013.9
20260831004511 83 54 16.0 24.0 0.00 0.00 0.00 87 1013.8
20260831003010 83 25 10.0 19.0 0.00 0.00 0.00 85 1013.8
20260831001523 82 358 8.0 14.0 0.00 0.00 0.00 84 1013.9
20260831000009 82 342 7.0 14.0 0.00 0.00 0.00 84 1013.7
20260830234507 82 358 5.0 16.0 0.00 0.00 0.00 83 1013.6
20260830233008 82 18 5.0 20.0 0.00 0.00 0.00 83 1013.6
20260830231508 82 352 7.0 16.0 0.00 0.00 0.00 83 1013.7
20260830230006 83 329 9.0 14.0 0.00 0.00 0.00 84 1013.6
20260830224503 83 357 8.0 18.0 0.00 0.00 0.00 86 1013.5
20260830223100 84 357 8.0 17.0 0.00 0.00 0.00 88 1013.3
20260830221556 84 15 7.0 19.0 0.00 0.00 0.00 87 1013.3
20260830220110 84 351 3.0 8.0 0.00 0.00 0.00 86 1013.3
20260830214601 84 352 4.0 10.0 0.00 0.00 0.00 86 1013.3
20260830213051 84 347 7.0 11.0 0.00 0.00 0.00 86 1013.2
20260830211551 84 357 6.0 12.0 0.00 0.00 0.00 85 1013.1
20260830210051 84 336 6.0 13.0 0.00 0.00 0.00 84 1013.1
20260830204549 85 357 7.0 14.0 0.00 0.00 0.00 82 1013.1
20260830203056 85 346 3.0 9.0 0.00 0.00 0.00 79 1013.0
20260830201550 85 334 4.0 14.0 0.00 0.00 0.00 78 1012.9
20260830200046 86 332 7.0 14.0 0.00 0.00 0.00 76 1012.8
20260830194545 86 331 3.0 13.0 0.00 0.00 0.00 75 1012.8
20260830193044 86 346 2.0 6.0 0.00 0.00 0.00 73 1012.6
20260830191543 87 336 1.0 5.0 0.00 0.00 0.00 73 1012.6
20260830190044 88 35 3.0 5.0 0.00 0.00 0.00 70 1012.5
20260830184542 90 55 3.0 6.0 0.00 0.00 0.00 62 1012.2
20260830183042 91 211 5.0 11.0 0.00 0.00 0.00 49 1012.0
20260830181548 91 242 4.0 8.0 0.00 0.00 0.00 46 1011.8
20260830180054 92 224 6.0 11.0 0.00 0.00 0.00 44 1011.5
20260830174550 92 238 5.0 10.0 0.00 0.00 0.00 42 1011.4
20260830173058 93 225 5.0 11.0 0.00 0.00 0.00 40 1011.2
20260830171550 94 210 5.0 10.0 0.00 0.00 0.00 39 1011.2
20260830170038 94 210 5.0 12.0 0.00 0.00 0.00 38 1011.2
20260830164536 94 205 7.0 11.0 0.00 0.00 0.00 38 1011.2
20260830163032 92 233 5.0 12.0 0.00 0.00 0.00 43 1011.3
20260830161535 89 125 2.0 6.0 0.00 0.00 0.00 70 1011.2
20260830160033 88 159 4.0 10.0 0.00 0.00 0.00 73 1011.3
20260830154532 87 106 6.0 11.0 0.00 0.00 0.00 75 1011.3
20260830153027 88 165 6.0 13.0 0.00 0.00 0.00 76 1011.4
20260830151524 87 127 8.0 17.0 0.00 0.00 0.00 77 1011.3
20260830150023 87 157 9.0 16.0 0.00 0.00 0.00 76 1011.4
20260830144525 87 139 8.0 19.0 0.00 0.00 0.00 76 1011.5
20260830143025 88 154 8.0 18.0 0.00 0.00 0.00 75 1011.5
20260830141518 88 167 9.0 20.0 0.00 0.00 0.00 72 1011.6
20260830140017 88 151 9.0 19.0 0.00 0.00 0.00 70 1011.6
20260830134533 88 207 10.0 22.0 0.00 0.00 0.00 67 1011.9
20260830133012 88 169 10.0 21.0 0.00 0.00 0.00 67 1012.0
20260830131511 89 153 10.0 21.0 0.00 0.00 0.00 62 1012.2
20260830130010 89 149 12.0 18.0 0.00 0.00 0.00 60 1012.3
20260830124508 88 129 9.0 17.0 0.00 0.00 0.00 63 1012.6
20260830123005 87 137 13.0 22.0 0.00 0.00 0.00 68 1012.9
20260830121504 88 141 7.0 18.0 0.00 0.00 0.00 67 1013.0
20260830120002 87 147 10.0 17.0 0.00 0.00 0.00 67 1013.1
20260830114604 87 201 6.0 16.0 0.00 0.00 0.00 69 1013.3
20260830113058 87 96 10.0 16.0 0.00 0.00 0.00 68 1013.4
20260830111556 87 132 10.0 14.0 0.00 0.00 0.00 62 1013.5
20260830110120 88 124 6.0 14.0 0.00 0.00 0.00 58 1013.6
20260830104552 88 151 7.0 12.0 0.00 0.00 0.00 55 1013.9
20260830103050 88 115 4.0 14.0 0.00 0.00 0.00 53 1013.9
20260830101548 88 100 7.0 14.0 0.00 0.00 0.00 52 1014.1
20260830100047 89 34 7.0 12.0 0.00 0.00 0.00 50 1014.2
20260830094545 88 93 8.0 11.0 0.00 0.00 0.00 45 1014.5
20260830093103 89 73 7.0 10.0 0.00 0.00 0.00 46 1014.6
20260830091542 89 91 6.0 9.0 0.00 0.00 0.00 44 1014.8
20260830090048 88 99 6.0 9.0 0.00 0.00 0.00 50 1014.9
20260830084541 88 89 5.0 9.0 0.00 0.00 0.00 49 1015.1
20260830083041 90 99 1.0 4.0 0.00 0.00 0.00 48 1015.1
20260830081537 89 101 0.0 2.0 0.00 0.00 0.00 48 1015.0
20260830080042 89 187 0.0 3.0 0.00 0.00 0.00 49 1015.1
20260830074553 88 53 0.0 1.0 0.00 0.00 0.00 51 1015.2
20260830073036 87 51 0.0 4.0 0.00 0.00 0.00 52 1015.1
20260830071534 87 174 0.0 0.0 0.00 0.00 0.00 52 1015.0
20260830070029 86 178 0.0 5.0 0.00 0.00 0.00 48 1014.8
20260830064533 86 222 0.0 3.0 0.00 0.00 0.00 48 1015.0